Time,TemperatureF,DewpointF,PressureIn,WindDirection,WindDirectionDegrees,WindSpeedMPH,WindSpeedGustMPH,Humidity,HourlyPrecipIn,Conditions,Clouds,dailyrainin,SoftwareType,DateUTC
2013-08-07 00:11:00,51.4,50.0,29.95,WSW,242,0.0,-999.0,96,-99.99,,,0.00,weatherlink.com 1.10,2013-08-07 07:11:00,
2013-08-07 00:25:00,51.2,50.0,29.95,WSW,242,0.0,-999.0,96,-99.99,,,0.00,weatherlink.com 1.10,2013-08-07 07:25:00,
2013-08-07 00:40:00,51.0,50.0,29.96,WSW,242,0.0,-999.0,96,-99.99,,,0.00,weatherlink.com 1.10,2013-08-07 07:40:00,
2013-08-07 00:55:00,51.3,51.0,29.96,WSW,242,0.0,-999.0,97,-99.99,,,0.00,weatherlink.com 1.10,2013-08-07 07:55:00,
2013-08-07 01:10:00,51.3,51.0,29.96,WSW,242,0.0,-999.0,97,-99.99,,,0.00,weatherlink.com 1.10,2013-08-07 08:10:00,
2013-08-07 01:25:00,51.2,50.0,29.96,WSW,242,0.0,-999.0,96,-99.99,,,0.00,weatherlink.com 1.10,2013-08-07 08:25:00,
2013-08-07 01:40:00,51.0,50.0,29.96,WSW,242,0.0,-999.0,96,-99.99,,,0.00,weatherlink.com 1.10,2013-08-07 08:40:00,
2013-08-07 01:55:00,50.7,50.0,29.96,WSW,242,0.0,-999.0,97,-99.99,,,0.00,weatherlink.com 1.10,2013-08-07 08:55:00,
2013-08-07 02:10:00,50.5,50.0,29.96,WSW,242,0.0,-999.0,97,-99.99,,,0.00,weatherlink.com 1.10,2013-08-07 09:10:00,
2013-08-07 02:26:00,50.6,50.0,29.96,WSW,242,0.0,-999.0,97,-99.99,,,0.00,weatherlink.com 1.10,2013-08-07 09:26:00,
2013-08-07 02:41:00,50.6,50.0,29.97,WSW,242,0.0,-999.0,97,-99.99,,,0.00,weatherlink.com 1.10,2013-08-07 09:41:00,
2013-08-07 02:56:00,50.5,50.0,29.97,WSW,242,0.0,-999.0,97,-99.99,,,0.00,weatherlink.com 1.10,2013-08-07 09:56:00,
2013-08-07 03:11:00,50.1,49.0,29.97,WSW,242,0.0,-999.0,97,-99.99,,,0.00,weatherlink.com 1.10,2013-08-07 10:11:00,
2013-08-07 03:26:00,50.3,50.0,29.97,WSW,242,0.0,-999.0,97,-99.99,,,0.00,weatherlink.com 1.10,2013-08-07 10:26:00,
2013-08-07 03:41:00,50.2,49.0,29.97,WSW,242,0.0,-999.0,97,-99.99,,,0.00,weatherlink.com 1.10,2013-08-07 10:41:00,
2013-08-07 03:55:00,49.7,49.0,29.97,WSW,242,0.0,-999.0,96,-99.99,,,0.00,weatherlink.com 1.10,2013-08-07 10:55:00,
2013-08-07 04:10:00,49.7,49.0,29.97,WSW,242,0.0,-999.0,97,-99.99,,,0.00,weatherlink.com 1.10,2013-08-07 11:10:00,
2013-08-07 04:25:00,49.7,49.0,29.96,WSW,242,2.0,-999.0,97,-99.99,,,0.00,weatherlink.com 1.10,2013-08-07 11:25:00,
2013-08-07 04:40:00,49.6,49.0,29.96,WSW,242,3.0,-999.0,97,-99.99,,,0.00,weatherlink.com 1.10,2013-08-07 11:40:00,
2013-08-07 04:55:00,49.6,49.0,29.96,WSW,242,1.0,-999.0,97,-99.99,,,0.00,weatherlink.com 1.10,2013-08-07 11:55:00,
2013-08-07 05:10:00,49.7,49.0,29.96,WSW,242,2.0,-999.0,97,-99.99,,,0.00,weatherlink.com 1.10,2013-08-07 12:10:00,
2013-08-07 05:25:00,49.4,49.0,29.96,WSW,242,2.0,-999.0,97,-99.99,,,0.00,weatherlink.com 1.10,2013-08-07 12:25:00,
2013-08-07 05:40:00,49.1,48.0,29.96,WSW,242,1.0,-999.0,97,-99.99,,,0.00,weatherlink.com 1.10,2013-08-07 12:40:00,
2013-08-07 05:55:00,48.8,48.0,29.96,WSW,242,2.0,-999.0,97,-99.99,,,0.00,weatherlink.com 1.10,2013-08-07 12:55:00,
2013-08-07 06:10:00,48.4,48.0,29.96,WSW,242,0.0,-999.0,97,-99.99,,,0.00,weatherlink.com 1.10,2013-08-07 13:10:00,
2013-08-07 06:25:00,48.6,48.0,29.96,WSW,242,0.0,-999.0,97,-99.99,,,0.00,weatherlink.com 1.10,2013-08-07 13:25:00,
2013-08-07 06:40:00,49.0,48.0,29.97,WSW,242,0.0,-999.0,97,-99.99,,,0.00,weatherlink.com 1.10,2013-08-07 13:40:00,
2013-08-07 06:55:00,49.2,48.0,29.97,WSW,242,0.0,-999.0,97,-99.99,,,0.00,weatherlink.com 1.10,2013-08-07 13:55:00,
2013-08-07 07:10:00,50.4,50.0,29.98,WSW,242,0.0,-999.0,97,-99.99,,,0.00,weatherlink.com 1.10,2013-08-07 14:10:00,
2013-08-07 07:25:00,51.2,51.0,29.98,WSW,242,0.0,-999.0,98,-99.99,,,0.00,weatherlink.com 1.10,2013-08-07 14:25:00,
2013-08-07 07:40:00,51.6,51.0,29.98,WSW,242,0.0,-999.0,98,-99.99,,,0.00,weatherlink.com 1.10,2013-08-07 14:40:00,
2013-08-07 07:56:00,51.9,51.0,29.98,WSW,242,0.0,-999.0,97,-99.99,,,0.00,weatherlink.com 1.10,2013-08-07 14:56:00,
2013-08-07 08:11:00,52.6,52.0,29.99,WSW,240,0.0,-999.0,97,-99.99,,,0.00,weatherlink.com 1.10,2013-08-07 15:11:00,
2013-08-07 08:26:00,52.8,52.0,29.99,WSW,240,0.0,-999.0,97,-99.99,,,0.00,weatherlink.com 1.10,2013-08-07 15:26:00,
2013-08-07 08:41:00,54.2,53.0,29.99,SW,232,0.0,-999.0,97,-99.99,,,0.00,weatherlink.com 1.10,2013-08-07 15:41:00,
2013-08-07 08:55:00,53.8,53.0,29.99,NE,38,3.0,-999.0,96,-99.99,,,0.00,weatherlink.com 1.10,2013-08-07 15:55:00,
2013-08-07 09:10:00,53.8,53.0,29.99,NNE,30,3.0,-999.0,96,-99.99,,,0.00,weatherlink.com 1.10,2013-08-07 16:10:00,
2013-08-07 09:25:00,55.0,54.0,29.99,SE,134,0.0,-999.0,96,-99.99,,,0.00,weatherlink.com 1.10,2013-08-07 16:25:00,
2013-08-07 09:40:00,53.9,52.0,29.99,SE,145,4.0,-999.0,94,-99.99,,,0.00,weatherlink.com 1.10,2013-08-07 16:40:00,
2013-08-07 10:11:00,55.3,54.0,30.00,NE,49,11.0,-999.0,94,-99.99,,,0.00,weatherlink.com 1.10,2013-08-07 17:11:00,
2013-08-07 10:26:00,55.4,53.0,30.01,NNE,21,10.0,-999.0,92,-99.99,,,0.00,weatherlink.com 1.10,2013-08-07 17:26:00,
2013-08-07 10:41:00,55.0,53.0,30.00,NE,38,6.0,-999.0,94,-99.99,,,0.00,weatherlink.com 1.10,2013-08-07 17:41:00,
2013-08-07 10:56:00,55.0,53.0,30.00,NNE,23,9.0,-999.0,94,-99.99,,,0.00,weatherlink.com 1.10,2013-08-07 17:56:00,
2013-08-07 11:11:00,54.9,53.0,30.01,NE,44,11.0,-999.0,94,-99.99,,,0.00,weatherlink.com 1.10,2013-08-07 18:11:00,
2013-08-07 11:26:00,54.9,53.0,30.02,NE,36,12.0,-999.0,94,-99.99,,,0.00,weatherlink.com 1.10,2013-08-07 18:26:00,
2013-08-07 11:41:00,55.8,54.0,30.02,NNW,348,2.0,-999.0,94,-99.99,,,0.00,weatherlink.com 1.10,2013-08-07 18:41:00,
2013-08-07 11:56:00,56.4,54.0,30.02,North,10,8.0,-999.0,92,-99.99,,,0.00,weatherlink.com 1.10,2013-08-07 18:56:00,
2013-08-07 12:11:00,56.4,54.0,30.02,NE,46,10.0,-999.0,91,-99.99,,,0.00,weatherlink.com 1.10,2013-08-07 19:11:00,
2013-08-07 12:26:00,55.4,53.0,30.02,NNE,30,13.0,-999.0,92,-99.99,,,0.00,weatherlink.com 1.10,2013-08-07 19:26:00,
2013-08-07 12:41:00,56.6,54.0,30.02,NE,46,6.0,-999.0,92,-99.99,,,0.00,weatherlink.com 1.10,2013-08-07 19:41:00,
2013-08-07 12:56:00,57.3,55.0,30.02,NE,53,5.0,-999.0,90,-99.99,,,0.00,weatherlink.com 1.10,2013-08-07 19:56:00,
2013-08-07 13:11:00,56.5,54.0,30.01,NE,44,6.0,-999.0,91,-99.99,,,0.00,weatherlink.com 1.10,2013-08-07 20:11:00,
2013-08-07 13:26:00,57.5,55.0,30.01,NE,44,9.0,-999.0,90,-99.99,,,0.00,weatherlink.com 1.10,2013-08-07 20:26:00,
2013-08-07 13:41:00,58.7,56.0,30.01,NNE,24,10.0,-999.0,89,-99.99,,,0.00,weatherlink.com 1.10,2013-08-07 20:41:00,
2013-08-07 13:56:00,59.0,56.0,30.01,NE,34,4.0,-999.0,88,-99.99,,,0.00,weatherlink.com 1.10,2013-08-07 20:56:00,
2013-08-07 14:11:00,59.3,56.0,30.00,North,11,5.0,-999.0,87,-99.99,,,0.00,weatherlink.com 1.10,2013-08-07 21:11:00,
2013-08-07 14:26:00,59.7,55.0,30.01,ENE,74,0.0,-999.0,85,-99.99,,,0.00,weatherlink.com 1.10,2013-08-07 21:26:00,
2013-08-07 14:41:00,60.3,56.0,30.00,ENE,77,4.0,-999.0,85,-99.99,,,0.00,weatherlink.com 1.10,2013-08-07 21:41:00,
2013-08-07 14:56:00,60.8,56.0,30.00,ENE,69,3.0,-999.0,84,-99.99,,,0.00,weatherlink.com 1.10,2013-08-07 21:56:00,
2013-08-07 15:12:00,62.0,56.0,29.99,ENE,60,4.0,-999.0,82,-99.99,,,0.00,weatherlink.com 1.10,2013-08-07 22:12:00,
2013-08-07 15:27:00,63.8,57.0,29.99,WNW,282,10.0,-999.0,79,-99.99,,,0.00,weatherlink.com 1.10,2013-08-07 22:27:00,
2013-08-07 15:42:00,63.8,57.0,29.99,West,280,0.0,-999.0,79,-99.99,,,0.00,weatherlink.com 1.10,2013-08-07 22:42:00,
2013-08-07 15:56:00,64.3,57.0,29.98,WSW,248,4.0,-999.0,78,-99.99,,,0.00,weatherlink.com 1.10,2013-08-07 22:56:00,
2013-08-07 16:11:00,63.3,57.0,29.98,West,261,9.0,-999.0,79,-99.99,,,0.00,weatherlink.com 1.10,2013-08-07 23:11:00,
2013-08-07 16:26:00,62.9,57.0,29.98,WSW,244,4.0,-999.0,81,-99.99,,,0.00,weatherlink.com 1.10,2013-08-07 23:26:00,
2013-08-07 16:41:00,63.3,57.0,29.98,WSW,252,6.0,-999.0,79,-99.99,,,0.00,weatherlink.com 1.10,2013-08-07 23:41:00,
2013-08-07 16:56:00,62.3,56.0,29.98,ESE,118,1.0,-999.0,80,-99.99,,,0.00,weatherlink.com 1.10,2013-08-07 23:56:00,
2013-08-07 17:11:00,61.8,56.0,29.98,WSW,249,10.0,-999.0,82,-99.99,,,0.00,weatherlink.com 1.10,2013-08-08 00:11:00,
2013-08-07 17:26:00,60.7,56.0,29.98,West,278,4.0,-999.0,83,-99.99,,,0.00,weatherlink.com 1.10,2013-08-08 00:26:00,
2013-08-07 17:41:00,59.6,55.0,29.98,West,261,5.0,-999.0,85,-99.99,,,0.00,weatherlink.com 1.10,2013-08-08 00:41:00,
2013-08-07 17:57:00,59.4,55.0,29.98,WNW,296,7.0,-999.0,86,-99.99,,,0.00,weatherlink.com 1.10,2013-08-08 00:57:00,
2013-08-07 18:12:00,60.2,56.0,29.98,West,276,3.0,-999.0,86,-99.99,,,0.00,weatherlink.com 1.10,2013-08-08 01:12:00,
2013-08-07 18:27:00,60.2,56.0,29.98,West,270,6.0,-999.0,85,-99.99,,,0.00,weatherlink.com 1.10,2013-08-08 01:27:00,
2013-08-07 18:42:00,60.8,56.0,29.97,West,272,0.0,-999.0,84,-99.99,,,0.00,weatherlink.com 1.10,2013-08-08 01:42:00,
2013-08-07 18:57:00,61.2,56.0,29.97,WNW,288,2.0,-999.0,84,-99.99,,,0.00,weatherlink.com 1.10,2013-08-08 01:57:00,
2013-08-07 19:12:00,59.0,55.0,29.97,ESE,121,1.0,-999.0,86,-99.99,,,0.00,weatherlink.com 1.10,2013-08-08 02:12:00,
2013-08-07 19:27:00,57.1,54.0,29.96,South,173,0.0,-999.0,88,-99.99,,,0.00,weatherlink.com 1.10,2013-08-08 02:27:00,
2013-08-07 19:42:00,56.1,54.0,29.96,South,173,0.0,-999.0,91,-99.99,,,0.00,weatherlink.com 1.10,2013-08-08 02:42:00,
2013-08-07 19:57:00,55.9,54.0,29.96,South,173,0.0,-999.0,92,-99.99,,,0.00,weatherlink.com 1.10,2013-08-08 02:57:00,
2013-08-07 20:11:00,55.3,53.0,29.96,South,173,0.0,-999.0,93,-99.99,,,0.00,weatherlink.com 1.10,2013-08-08 03:11:00,
2013-08-07 20:26:00,55.2,53.0,29.96,South,173,0.0,-999.0,93,-99.99,,,0.00,weatherlink.com 1.10,2013-08-08 03:26:00,
2013-08-07 20:41:00,55.4,54.0,29.97,South,173,0.0,-999.0,94,-99.99,,,0.00,weatherlink.com 1.10,2013-08-08 03:41:00,
2013-08-07 20:57:00,55.7,54.0,29.97,South,173,0.0,-999.0,95,-99.99,,,0.00,weatherlink.com 1.10,2013-08-08 03:57:00,
2013-08-07 21:12:00,57.2,55.0,29.97,SW,232,0.0,-999.0,92,-99.99,,,0.00,weatherlink.com 1.10,2013-08-08 04:12:00,
2013-08-07 21:27:00,55.9,54.0,29.98,SW,223,0.0,-999.0,93,-99.99,,,0.00,weatherlink.com 1.10,2013-08-08 04:27:00,
2013-08-07 21:42:00,55.8,54.0,29.98,SW,223,0.0,-999.0,93,-99.99,,,0.00,weatherlink.com 1.10,2013-08-08 04:42:00,
2013-08-07 21:56:00,55.8,54.0,29.98,SW,223,0.0,-999.0,94,-99.99,,,0.00,weatherlink.com 1.10,2013-08-08 04:56:00,
2013-08-07 22:12:00,57.1,56.0,29.98,SW,227,3.0,-999.0,97,-99.99,,,0.00,weatherlink.com 1.10,2013-08-08 05:12:00,
2013-08-07 22:27:00,57.1,55.0,29.98,WSW,240,0.0,-999.0,93,-99.99,,,0.00,weatherlink.com 1.10,2013-08-08 05:27:00,
2013-08-07 22:42:00,58.7,58.0,29.99,SW,235,0.0,-999.0,96,-99.99,,,0.00,weatherlink.com 1.10,2013-08-08 05:42:00,
2013-08-07 22:57:00,59.6,59.0,29.98,SW,235,1.0,-999.0,96,-99.99,,,0.00,weatherlink.com 1.10,2013-08-08 05:57:00,
2013-08-07 23:11:00,60.7,59.0,29.99,WSW,250,0.0,-999.0,95,-99.99,,,0.00,weatherlink.com 1.10,2013-08-08 06:11:00,
2013-08-07 23:26:00,61.2,60.0,29.99,West,261,0.0,-999.0,94,-99.99,,,0.00,weatherlink.com 1.10,2013-08-08 06:26:00,
2013-08-07 23:41:00,61.1,59.0,30.00,WSW,243,2.0,-999.0,93,-99.99,,,0.00,weatherlink.com 1.10,2013-08-08 06:41:00,
2013-08-07 23:57:00,61.1,59.0,30.00,South,173,0.0,-999.0,93,-99.99,,,0.00,weatherlink.com 1.10,2013-08-08 06:57:00,